This is the latest recevied weather packets stored in our database for station/object KB3KBR-WX. If no packets are shown the sender has not sent any weather packets the latest 10 day(s).
| Time | Temp. | Humidity | Pressure | Rain* | Wind** | Luminosity | Snow |
|---|---|---|---|---|---|---|---|
| 1787529926 | 15.56° C | 86% | 1010.1 hPa | 0 mm | - | - | - |
| 1787529595 | 15.56° C | 85% | 1010 hPa | 0 mm | - | - | - |
| 1787529295 | 15.56° C | 84% | 1010.1 hPa | 0 mm | - | - | - |
| 1787528965 | 16.11° C | 84% | 1010.1 hPa | 0 mm | - | - | - |
| 1787528635 | 16.11° C | 82% | 1010.1 hPa | 0 mm | - | - | - |
| 1787528335 | 16.67° C | 82% | 1010.2 hPa | 0 mm | - | - | - |
| 1787528005 | 16.67° C | 82% | 1010.1 hPa | 0 mm | - | - | - |
| 1787527675 | 16.67° C | 82% | 1010.2 hPa | 0 mm | - | - | - |
| 1787527375 | 16.67° C | 80% | 1010.2 hPa | 0 mm | - | - | - |
| 1787527045 | 16.67° C | 80% | 1010.2 hPa | 0 mm | - | - | - |
| 1787526745 | 17.22° C | 80% | 1010.2 hPa | 0 mm | - | - | - |
| 1787526415 | 17.78° C | 79% | 1010.2 hPa | 0 mm | - | - | - |
| 1787526085 | 17.78° C | 77% | 1010.3 hPa | 0 mm | - | - | - |
| 1787525755 | 18.33° C | 75% | 1010.4 hPa | 0 mm | - | - | - |
| 1787525455 | 18.89° C | 76% | 1010.6 hPa | 0 mm | - | - | - |
| 1787525125 | 18.89° C | 78% | 1010.4 hPa | 0 mm | - | - | - |
| 1787524795 | 18.89° C | 76% | 1010.2 hPa | 0 mm | - | - | - |
| 1787524466 | 19.44° C | 75% | 1010.2 hPa | 0 mm | - | - | - |
| 1787523835 | 19.44° C | 74% | 1010.1 hPa | 0 mm | - | - | - |
| 1787523535 | 20° C | 73% | 1010.1 hPa | 0 mm | - | - | - |
| 1787523384 | 20° C | 72% | 1010 hPa | 0 mm | - | - | - |
| 1787523205 | 20° C | 73% | 1010.1 hPa | 0 mm | - | - | - |
| 1787522904 | 20° C | 73% | 1010 hPa | 0 mm | - | - | - |
| 1787522605 | 20° C | 72% | 1010 hPa | 0 mm | - | - | - |
| 1787522341 | 20° C | 72% | 1009.9 hPa | 0 mm | - | - | - |
* Rain latest hour (hover to see other rain measurements)
** Current wind speed in m/s (hover to see current wind gust speed)